| time (UTC) | temp C | wind direction | speed KPH | gust KPH | rain 1hr cm | rain 24hr cm | rain mn cm | humidity % | barometer mb |
| 20260505112401 | 12 | 29 | 16.1 | 25.7 | 0.00 | 0.03 | 0.03 | 61 | 1008.1 |
| 20260505111856 | 12 | 18 | 12.9 | 24.1 | 0.00 | 0.03 | 0.03 | 62 | 1007.8 |
| 20260505111351 | 12 | 63 | 8.0 | 25.7 | 0.00 | 0.03 | 0.03 | 62 | 1007.9 |
| 20260505110847 | 12 | 51 | 11.3 | 25.7 | 0.00 | 0.03 | 0.03 | 62 | 1007.7 |
| 20260505110345 | 12 | 41 | 12.9 | 17.7 | 0.00 | 0.03 | 0.03 | 61 | 1007.6 |
| 20260505101815 | 12 | 77 | 8.0 | 32.2 | 0.00 | 0.03 | 0.03 | 61 | 1007.0 |
| 20260505101310 | 12 | 13 | 24.1 | 35.4 | 0.00 | 0.03 | 0.03 | 61 | 1007.3 |
| 20260505100807 | 12 | 40 | 16.1 | 40.2 | 0.00 | 0.03 | 0.03 | 61 | 1007.3 |
| 20260505100303 | 12 | 47 | 6.4 | 24.1 | 0.00 | 0.03 | 0.03 | 62 | 1007.3 |
| 20260505095759 | 12 | 47 | 11.3 | 22.5 | 0.00 | 0.03 | 0.03 | 63 | 1007.0 |
| 20260505095257 | 12 | 22 | 12.9 | 35.4 | 0.00 | 0.03 | 0.03 | 63 | 1007.1 |
| 20260505094752 | 12 | 37 | 8.0 | 20.9 | 0.00 | 0.03 | 0.03 | 64 | 1006.9 |
| 20260505094249 | 12 | 40 | 24.1 | 43.5 | 0.00 | 0.03 | 0.03 | 64 | 1006.9 |
| 20260505093745 | 12 | 26 | 14.5 | 25.7 | 0.00 | 0.03 | 0.03 | 66 | 1006.8 |
| 20260505093243 | 12 | 28 | 6.4 | 32.2 | 0.00 | 0.03 | 0.03 | 65 | 1006.8 |
| 20260505092740 | 12 | 29 | 20.9 | 41.8 | 0.00 | 0.03 | 0.03 | 64 | 1007.0 |
| 20260505092238 | 12 | 27 | 16.1 | 32.2 | 0.00 | 0.03 | 0.03 | 66 | 1006.5 |
| 20260505091735 | 12 | 40 | 17.7 | 32.2 | 0.00 | 0.03 | 0.03 | 68 | 1006.7 |
| 20260505091233 | 12 | 68 | 8.0 | 29.0 | 0.00 | 0.03 | 0.03 | 70 | 1006.7 |
| 20260505090730 | 12 | 32 | 17.7 | 40.2 | 0.00 | 0.03 | 0.03 | 71 | 1006.9 |
| 20260505090229 | 12 | 30 | 14.5 | 32.2 | 0.00 | 0.03 | 0.03 | 71 | 1006.7 |
| 20260505085726 | 12 | 36 | 19.3 | 40.2 | 0.00 | 0.03 | 0.03 | 72 | 1006.7 |
| 20260505085224 | 13 | 20 | 17.7 | 33.8 | 0.00 | 0.03 | 0.03 | 73 | 1006.5 |
| 20260505084721 | 13 | 14 | 11.3 | 38.6 | 0.00 | 0.03 | 0.03 | 73 | 1006.6 |
| 20260505084220 | 13 | 39 | 14.5 | 35.4 | 0.00 | 0.03 | 0.03 | 75 | 1006.1 |
| 20260505083716 | 13 | 25 | 16.1 | 19.3 | 0.00 | 0.03 | 0.03 | 75 | 1006.0 |
| 20260505083213 | 13 | 36 | 16.1 | 29.0 | 0.00 | 0.03 | 0.03 | 75 | 1006.0 |
| 20260505082709 | 13 | 21 | 12.9 | 22.5 | 0.00 | 0.03 | 0.03 | 78 | 1006.0 |
| 20260505082207 | 13 | 49 | 9.7 | 45.1 | 0.00 | 0.03 | 0.03 | 78 | 1005.9 |
| 20260505081702 | 14 | 24 | 14.5 | 32.2 | 0.00 | 0.03 | 0.03 | 77 | 1005.7 |
| 20260505081200 | 14 | 37 | 9.7 | 35.4 | 0.00 | 0.03 | 0.03 | 78 | 1005.7 |
| 20260505080657 | 14 | 53 | 4.8 | 27.4 | 0.00 | 0.03 | 0.03 | 79 | 1005.6 |
| 20260505080152 | 15 | 13 | 14.5 | 35.4 | 0.00 | 0.03 | 0.03 | 79 | 1005.7 |
| 20260505075648 | 15 | 19 | 12.9 | 54.7 | 0.00 | 0.03 | 0.03 | 82 | 1005.7 |
| 20260505075145 | 15 | 32 | 19.3 | 29.0 | 0.00 | 0.03 | 0.03 | 83 | 1005.6 |
| 20260505074642 | 15 | 17 | 9.7 | 24.1 | 0.00 | 0.03 | 0.03 | 83 | 1005.4 |
| 20260505074139 | 15 | 12 | 8.0 | 38.6 | 0.00 | 0.03 | 0.03 | 83 | 1005.6 |
| 20260505073637 | 15 | 46 | 6.4 | 32.2 | 0.00 | 0.03 | 0.03 | 83 | 1005.2 |
| 20260505073135 | 15 | 63 | 8.0 | 22.5 | 0.00 | 0.03 | 0.03 | 83 | 1005.4 |
| 20260505072630 | 15 | 30 | 11.3 | 24.1 | 0.00 | 0.03 | 0.03 | 84 | 1005.5 |
| 20260505072127 | 15 | 38 | 16.1 | 20.9 | 0.00 | 0.03 | 0.03 | 86 | 1005.5 |
| 20260505071623 | 16 | 42 | 6.4 | 19.3 | 0.00 | 0.03 | 0.03 | 85 | 1005.6 |
| 20260505071121 | 16 | 34 | 8.0 | 17.7 | 0.00 | 0.03 | 0.03 | 83 | 1005.2 |
| 20260505070618 | 16 | 0 | 6.4 | 20.9 | 0.00 | 0.03 | 0.03 | 81 | 1005.1 |
| 20260505070114 | 17 | 12 | 4.8 | 20.9 | 0.00 | 0.03 | 0.03 | 80 | 1005.0 |
| 20260505065610 | 17 | 24 | 6.4 | 19.3 | 0.00 | 0.03 | 0.03 | 80 | 1005.1 |
| 20260505065107 | 17 | 0 | 9.7 | 29.0 | 0.00 | 0.03 | 0.03 | 79 | 1005.5 |
| 20260505064604 | 17 | 8 | 12.9 | 17.7 | 0.00 | 0.03 | 0.03 | 80 | 1005.0 |
| 20260505064102 | 17 | 50 | 6.4 | 17.7 | 0.00 | 0.03 | 0.03 | 81 | 1004.9 |
| 20260505063559 | 19 | 16 | 8.0 | 17.7 | 0.00 | 0.03 | 0.03 | 83 | 1004.9 |
| 20260505063055 | 19 | 351 | 9.7 | 14.5 | 0.00 | 0.03 | 0.03 | 86 | 1004.9 |
| 20260505062551 | 19 | 53 | 3.2 | 11.3 | 0.00 | 0.03 | 0.03 | 86 | 1004.4 |
| 20260505062049 | 19 | 9 | 8.0 | 14.5 | 0.00 | 0.03 | 0.03 | 86 | 1004.5 |
| 20260505061546 | 19 | 35 | 4.8 | 8.0 | 0.00 | 0.03 | 0.03 | 86 | 1004.3 |
| 20260505061044 | 19 | 29 | 4.8 | 8.0 | 0.00 | 0.03 | 0.03 | 86 | 1004.4 |
| 20260505060541 | 19 | 30 | 6.4 | 9.7 | 0.00 | 0.03 | 0.03 | 87 | 1004.2 |
| 20260505060038 | 19 | 46 | 3.2 | 8.0 | 0.00 | 0.03 | 0.03 | 88 | 1004.4 |
| 20260505055533 | 19 | 36 | 4.8 | 6.4 | 0.00 | 0.03 | 0.03 | 88 | 1004.6 |
| 20260505055030 | 18 | 11 | 6.4 | 14.5 | 0.00 | 0.03 | 0.03 | 89 | 1004.5 |
| 20260505054527 | 19 | 357 | 3.2 | 4.8 | 0.00 | 0.03 | 0.03 | 89 | 1004.2 |
| 20260505054026 | 19 | 23 | 1.6 | 4.8 | 0.13 | 0.03 | 0.03 | 86 | 1004.3 |
| 20260505053522 | 20 | 274 | 3.2 | 4.8 | 0.18 | 0.03 | 0.03 | 84 | 1004.3 |
| 20260505053019 | 20 | 89 | 0.0 | 3.2 | 0.05 | 0.00 | 0.00 | 80 | 1003.6 |
| 20260505052516 | 20 | 115 | 0.0 | 3.2 | 0.00 | 0.00 | 0.00 | 78 | 1004.3 |
| 20260505052014 | 20 | 42 | 3.2 | 4.8 | 0.00 | 0.00 | 0.00 | 77 | 1004.2 |
| 20260505051510 | 20 | 25 | 3.2 | 4.8 | 0.00 | 0.00 | 0.00 | 76 | 1004.1 |
| 20260505051008 | 20 | 39 | 3.2 | 3.2 | 0.00 | 0.00 | 0.00 | 77 | 1003.9 |
| 20260505050506 | 20 | 1 | 3.2 | 6.4 | 0.00 | 0.00 | 0.00 | 78 | 1003.9 |
| 20260505041434 | 20 | 78 | 0.0 | 3.2 | 0.00 | 0.00 | 0.00 | 75 | 1003.7 |
| 20260505040931 | 21 | 128 | 1.6 | 3.2 | 0.00 | 0.00 | 0.00 | 75 | 1003.6 |
| 20260505040428 | 21 | 238 | 3.2 | 4.8 | 0.00 | 0.00 | 0.00 | 74 | 1003.6 |
| 20260505035925 | 21 | 25 | 0.0 | 1.6 | 0.00 | 0.00 | 0.00 | 73 | 1003.3 |
| 20260505035421 | 21 | 103 | 0.0 | 4.8 | 0.00 | 0.00 | 0.00 | 73 | 1003.3 |
| 20260505034919 | 21 | 76 | 0.0 | 3.2 | 0.00 | 0.00 | 0.00 | 72 | 1003.3 |
| 20260505034415 | 21 | 122 | 1.6 | 4.8 | 0.00 | 0.00 | 0.00 | 71 | 1003.4 |
| 20260505033912 | 22 | 156 | 3.2 | 4.8 | 0.00 | 0.00 | 0.00 | 70 | 1003.5 |
| 20260505033409 | 22 | 114 | 1.6 | 3.2 | 0.00 | 0.00 | 0.00 | 70 | 1003.9 |
| 20260505032907 | 22 | 126 | 0.0 | 3.2 | 0.00 | 0.00 | 0.00 | 69 | 1003.9 |
| 20260505032403 | 22 | 145 | 1.6 | 8.0 | 0.00 | 0.00 | 0.00 | 69 | 1003.9 |
| 20260505031900 | 22 | 136 | 0.0 | 14.5 | 0.00 | 0.00 | 0.00 | 68 | 1004.0 |
| 20260505031357 | 22 | 143 | 0.0 | 4.8 | 0.00 | 0.00 | 0.00 | 68 | 1004.0 |
| 20260505030854 | 22 | 230 | 0.0 | 3.2 | 0.00 | 0.00 | 0.00 | 67 | 1004.1 |
| 20260505030350 | 22 | 242 | 0.0 | 4.8 | 0.00 | 0.00 | 0.00 | 67 | 1003.9 |
| 20260505025845 | 22 | 166 | 0.0 | 16.1 | 0.00 | 0.00 | 0.00 | 66 | 1004.2 |
| 20260505025343 | 22 | 207 | 3.2 | 12.9 | 0.00 | 0.00 | 0.00 | 66 | 1004.1 |
| 20260505024842 | 22 | 117 | 0.0 | 6.4 | 0.00 | 0.00 | 0.00 | 66 | 1003.7 |
| 20260505024339 | 22 | 167 | 9.7 | 11.3 | 0.00 | 0.00 | 0.00 | 66 | 1003.7 |
| 20260505023836 | 22 | 113 | 1.6 | 6.4 | 0.00 | 0.00 | 0.00 | 66 | 1003.5 |
| 20260505023333 | 22 | 117 | 0.0 | 4.8 | 0.00 | 0.00 | 0.00 | 65 | 1003.7 |
| 20260505022830 | 23 | 154 | 0.0 | 4.8 | 0.00 | 0.00 | 0.00 | 64 | 1004.1 |
| 20260505022327 | 22 | 120 | 9.7 | 11.3 | 0.00 | 0.00 | 0.00 | 64 | 1003.9 |
| 20260505021824 | 23 | 217 | 0.0 | 11.3 | 0.00 | 0.00 | 0.00 | 63 | 1004.0 |
| 20260505021321 | 23 | 221 | 0.0 | 6.4 | 0.00 | 0.00 | 0.00 | 62 | 1004.1 |
| 20260505020816 | 23 | 194 | 4.8 | 12.9 | 0.00 | 0.00 | 0.00 | 61 | 1004.1 |
| 20260505020312 | 23 | 189 | 4.8 | 9.7 | 0.00 | 0.00 | 0.00 | 61 | 1004.1 |
| 20260505015809 | 23 | 140 | 4.8 | 11.3 | 0.00 | 0.00 | 0.00 | 61 | 1003.3 |
| 20260505015307 | 23 | 140 | 6.4 | 17.7 | 0.00 | 0.00 | 0.00 | 60 | 1003.2 |
| 20260505014804 | 23 | 165 | 4.8 | 14.5 | 0.00 | 0.00 | 0.00 | 59 | 1003.1 |
| 20260505014301 | 23 | 176 | 4.8 | 17.7 | 0.00 | 0.00 | 0.00 | 59 | 1003.0 |
| 20260505013757 | 23 | 160 | 6.4 | 14.5 | 0.00 | 0.00 | 0.00 | 58 | 1003.1 |
| 20260505013254 | 23 | 152 | 0.0 | 9.7 | 0.00 | 0.00 | 0.00 | 58 | 1002.9 |
| 20260505012752 | 23 | 136 | 6.4 | 16.1 | 0.00 | 0.00 | 0.00 | 57 | 1002.7 |
| 20260505012249 | 23 | 166 | 6.4 | 14.5 | 0.00 | 0.00 | 0.00 | 57 | 1002.7 |
| 20260505011745 | 24 | 127 | 4.8 | 11.3 | 0.00 | 0.00 | 0.00 | 56 | 1002.8 |
| 20260505011237 | 24 | 150 | 8.0 | 19.3 | 0.00 | 0.00 | 0.00 | 56 | 1002.7 |
| 20260505010732 | 24 | 133 | 9.7 | 14.5 | 0.00 | 0.00 | 0.00 | 55 | 1002.7 |
| 20260505010229 | 24 | 144 | 4.8 | 11.3 | 0.00 | 0.00 | 0.00 | 55 | 1002.6 |
| 20260505005726 | 24 | 52 | 1.6 | 12.9 | 0.00 | 0.00 | 0.00 | 55 | 1002.6 |
| 20260505005223 | 25 | 205 | 3.2 | 11.3 | 0.00 | 0.00 | 0.00 | 54 | 1002.7 |
| 20260505004720 | 25 | 160 | 1.6 | 14.5 | 0.00 | 0.00 | 0.00 | 54 | 1002.7 |
| 20260505004216 | 25 | 124 | 4.8 | 11.3 | 0.00 | 0.00 | 0.00 | 53 | 1002.8 |
| 20260505003714 | 25 | 132 | 14.5 | 17.7 | 0.00 | 0.00 | 0.00 | 52 | 1002.8 |
| 20260505003212 | 25 | 121 | 6.4 | 12.9 | 0.00 | 0.00 | 0.00 | 52 | 1002.9 |
| 20260505002707 | 25 | 130 | 6.4 | 19.3 | 0.00 | 0.00 | 0.00 | 51 | 1002.9 |
| 20260505002205 | 25 | 181 | 1.6 | 9.7 | 0.00 | 0.00 | 0.00 | 51 | 1002.9 |
| 20260505001702 | 25 | 212 | 4.8 | 16.1 | 0.00 | 0.00 | 0.00 | 51 | 1003.0 |
| 20260505001159 | 25 | 184 | 1.6 | 14.5 | 0.00 | 0.00 | 0.00 | 50 | 1003.1 |
| 20260505000657 | 25 | 107 | 3.2 | 6.4 | 0.00 | 0.00 | 0.00 | 49 | 1002.9 |
| 20260505000154 | 25 | 144 | 4.8 | 14.5 | 0.00 | 0.00 | 0.00 | 49 | 1002.9 |
| 20260504235650 | 26 | 149 | 9.7 | 14.5 | 0.00 | 0.00 | 0.00 | 48 | 1003.0 |
| 20260504235147 | 26 | 142 | 9.7 | 19.3 | 0.00 | 0.00 | 0.00 | 48 | 1003.1 |
| 20260504234644 | 26 | 133 | 4.8 | 20.9 | 0.00 | 0.00 | 0.00 | 48 | 1003.1 |
| 20260504234142 | 26 | 138 | 3.2 | 20.9 | 0.00 | 0.00 | 0.00 | 47 | 1003.0 |
| 20260504233637 | 26 | 139 | 9.7 | 20.9 | 0.00 | 0.00 | 0.00 | 46 | 1003.1 |
| 20260504233133 | 26 | 219 | 8.0 | 8.0 | 0.00 | 0.00 | 0.00 | 46 | 1003.2 |
| 20260504232631 | 26 | 150 | 3.2 | 14.5 | 0.00 | 0.00 | 0.00 | 46 | 1003.1 |
| 20260504232128 | 26 | 193 | 4.8 | 20.9 | 0.00 | 0.00 | 0.00 | 45 | 1003.1 |
| 20260504231624 | 26 | 172 | 9.7 | 20.9 | 0.00 | 0.00 | 0.00 | 45 | 1003.0 |
| 20260504231121 | 26 | 165 | 6.4 | 12.9 | 0.00 | 0.00 | 0.00 | 46 | 1003.1 |
| 20260504230617 | 26 | 218 | 11.3 | 16.1 | 0.00 | 0.00 | 0.00 | 45 | 1003.0 |
| 20260504230116 | 27 | 134 | 14.5 | 17.7 | 0.00 | 0.00 | 0.00 | 44 | 1003.1 |
| 20260504225614 | 27 | 201 | 4.8 | 11.3 | 0.00 | 0.00 | 0.00 | 45 | 1003.1 |
| 20260504225110 | 26 | 191 | 4.8 | 17.7 | 0.00 | 0.00 | 0.00 | 45 | 1003.0 |
| 20260504224606 | 27 | 180 | 6.4 | 20.9 | 0.00 | 0.00 | 0.00 | 44 | 1002.9 |
| 20260504224104 | 27 | 175 | 8.0 | 17.7 | 0.00 | 0.00 | 0.00 | 44 | 1003.0 |
| 20260504223600 | 27 | 141 | 11.3 | 32.2 | 0.00 | 0.00 | 0.00 | 43 | 1003.1 |
| 20260504223056 | 27 | 197 | 8.0 | 22.5 | 0.00 | 0.00 | 0.00 | 43 | 1003.0 |
| 20260504222553 | 27 | 164 | 6.4 | 19.3 | 0.00 | 0.00 | 0.00 | 42 | 1003.0 |
| 20260504222050 | 27 | 168 | 4.8 | 19.3 | 0.00 | 0.00 | 0.00 | 43 | 1003.0 |
| 20260504221548 | 27 | 198 | 1.6 | 20.9 | 0.00 | 0.00 | 0.00 | 42 | 1003.0 |
| 20260504221044 | 27 | 168 | 14.5 | 17.7 | 0.00 | 0.00 | 0.00 | 43 | 1003.0 |
| 20260504220541 | 28 | 190 | 3.2 | 20.9 | 0.00 | 0.00 | 0.00 | 42 | 1003.0 |
| 20260504220038 | 28 | 152 | 4.8 | 20.9 | 0.00 | 0.00 | 0.00 | 42 | 1003.0 |
| 20260504215534 | 28 | 158 | 9.7 | 20.9 | 0.00 | 0.00 | 0.00 | 42 | 1002.9 |
| 20260504215032 | 28 | 194 | 6.4 | 17.7 | 0.00 | 0.00 | 0.00 | 42 | 1003.2 |
| 20260504214528 | 28 | 209 | 6.4 | 20.9 | 0.00 | 0.00 | 0.00 | 40 | 1003.3 |
| 20260504214024 | 28 | 137 | 3.2 | 20.9 | 0.00 | 0.00 | 0.00 | 42 | 1003.2 |
| 20260504213521 | 28 | 156 | 9.7 | 30.6 | 0.00 | 0.00 | 0.00 | 40 | 1003.3 |
| 20260504213018 | 28 | 170 | 4.8 | 14.5 | 0.00 | 0.00 | 0.00 | 40 | 1003.2 |
| 20260504212514 | 29 | 168 | 24.1 | 24.1 | 0.00 | 0.00 | 0.00 | 39 | 1003.1 |
| 20260504212011 | 29 | 149 | 8.0 | 19.3 | 0.00 | 0.00 | 0.00 | 39 | 1003.4 |
| 20260504211508 | 30 | 182 | 12.9 | 29.0 | 0.00 | 0.00 | 0.00 | 38 | 1003.4 |
| 20260504211005 | 30 | 144 | 8.0 | 19.3 | 0.00 | 0.00 | 0.00 | 37 | 1003.3 |
| 20260504210502 | 30 | 162 | 3.2 | 27.4 | 0.00 | 0.00 | 0.00 | 37 | 1003.4 |
| 20260504205959 | 29 | 152 | 8.0 | 22.5 | 0.00 | 0.00 | 0.00 | 38 | 1003.5 |
| 20260504205456 | 30 | 190 | 8.0 | 22.5 | 0.00 | 0.00 | 0.00 | 38 | 1003.6 |
| 20260504204955 | 30 | 166 | 4.8 | 24.1 | 0.00 | 0.00 | 0.00 | 37 | 1003.6 |
| 20260504204452 | 30 | 181 | 8.0 | 27.4 | 0.00 | 0.00 | 0.00 | 37 | 1003.6 |
| 20260504203951 | 30 | 133 | 3.2 | 19.3 | 0.00 | 0.00 | 0.00 | 36 | 1003.7 |
| 20260504203449 | 31 | 13 | 1.6 | 9.7 | 0.00 | 0.00 | 0.00 | 37 | 1003.5 |
| 20260504202945 | 30 | 156 | 8.0 | 14.5 | 0.00 | 0.00 | 0.00 | 36 | 1003.6 |
| 20260504202441 | 30 | 153 | 11.3 | 25.7 | 0.00 | 0.00 | 0.00 | 35 | 1003.6 |
| 20260504201938 | 30 | 190 | 6.4 | 16.1 | 0.00 | 0.00 | 0.00 | 36 | 1004.1 |
| 20260504201435 | 30 | 178 | 6.4 | 20.9 | 0.00 | 0.00 | 0.00 | 36 | 1004.0 |
| 20260504200933 | 30 | 156 | 0.0 | 8.0 | 0.00 | 0.00 | 0.00 | 38 | 1004.2 |
| 20260504200430 | 30 | 151 | 11.3 | 20.9 | 0.00 | 0.00 | 0.00 | 35 | 1004.1 |
| 20260504195926 | 30 | 185 | 4.8 | 9.7 | 0.00 | 0.00 | 0.00 | 35 | 1004.2 |
| 20260504195422 | 31 | 205 | 4.8 | 9.7 | 0.00 | 0.00 | 0.00 | 35 | 1004.5 |
| 20260504194919 | 30 | 318 | 3.2 | 14.5 | 0.00 | 0.00 | 0.00 | 36 | 1004.5 |
| 20260504194414 | 30 | 222 | 4.8 | 14.5 | 0.00 | 0.00 | 0.00 | 36 | 1004.5 |
| 20260504193911 | 30 | 160 | 3.2 | 8.0 | 0.00 | 0.00 | 0.00 | 36 | 1004.5 |
| 20260504193408 | 29 | 210 | 4.8 | 20.9 | 0.00 | 0.00 | 0.00 | 37 | 1004.5 |
| 20260504192907 | 29 | 182 | 3.2 | 19.3 | 0.00 | 0.00 | 0.00 | 36 | 1005.0 |
| 20260504192404 | 29 | 239 | 3.2 | 9.7 | 0.00 | 0.00 | 0.00 | 38 | 1004.9 |
| 20260504191903 | 28 | 166 | 3.2 | 9.7 | 0.00 | 0.00 | 0.00 | 39 | 1005.1 |
| 20260504191400 | 29 | 178 | 4.8 | 8.0 | 0.00 | 0.00 | 0.00 | 37 | 1004.9 |
| 20260504190855 | 30 | 210 | 8.0 | 12.9 | 0.00 | 0.00 | 0.00 | 36 | 1004.9 |
| 20260504190351 | 30 | 175 | 4.8 | 11.3 | 0.00 | 0.00 | 0.00 | 36 | 1005.0 |
| 20260504185848 | 30 | 154 | 0.0 | 8.0 | 0.00 | 0.00 | 0.00 | 35 | 1005.2 |
| 20260504185345 | 30 | 165 | 4.8 | 12.9 | 0.00 | 0.00 | 0.00 | 37 | 1005.3 |
| 20260504184841 | 29 | 274 | 6.4 | 11.3 | 0.00 | 0.00 | 0.00 | 36 | 1005.1 |
| 20260504184337 | 29 | 146 | 4.8 | 6.4 | 0.00 | 0.00 | 0.00 | 37 | 1005.2 |
| 20260504183833 | 29 | 234 | 4.8 | 8.0 | 0.00 | 0.00 | 0.00 | 37 | 1005.2 |
| 20260504183331 | 28 | 177 | 3.2 | 8.0 | 0.00 | 0.00 | 0.00 | 39 | 1005.3 |
| 20260504182828 | 28 | 183 | 0.0 | 8.0 | 0.00 | 0.00 | 0.00 | 38 | 1005.3 |
| 20260504182325 | 28 | 175 | 3.2 | 9.7 | 0.00 | 0.00 | 0.00 | 39 | 1005.4 |
| 20260504181822 | 27 | 345 | 4.8 | 6.4 | 0.00 | 0.00 | 0.00 | 40 | 1005.7 |
| 20260504181320 | 27 | 193 | 4.8 | 22.5 | 0.00 | 0.00 | 0.00 | 40 | 1005.6 |
| 20260504180819 | 27 | 208 | 4.8 | 9.7 | 0.00 | 0.00 | 0.00 | 40 | 1005.6 |
| 20260504180317 | 27 | 213 | 3.2 | 6.4 | 0.00 | 0.00 | 0.00 | 41 | 1005.5 |
| 20260504175814 | 27 | 175 | 3.2 | 16.1 | 0.00 | 0.00 | 0.00 | 41 | 1005.9 |
| 20260504175311 | 26 | 181 | 3.2 | 14.5 | 0.00 | 0.00 | 0.00 | 41 | 1005.7 |
| 20260504174809 | 27 | 191 | 4.8 | 16.1 | 0.00 | 0.00 | 0.00 | 43 | 1005.6 |
| 20260504174306 | 26 | 166 | 6.4 | 11.3 | 0.00 | 0.00 | 0.00 | 43 | 1005.9 |
| 20260504173803 | 26 | 227 | 11.3 | 12.9 | 0.00 | 0.00 | 0.00 | 43 | 1005.9 |
| 20260504173300 | 26 | 147 | 6.4 | 12.9 | 0.00 | 0.00 | 0.00 | 45 | 1005.9 |
| 20260504172756 | 25 | 139 | 4.8 | 12.9 | 0.00 | 0.00 | 0.00 | 44 | 1005.9 |
| 20260504172253 | 25 | 182 | 4.8 | 12.9 | 0.00 | 0.00 | 0.00 | 43 | 1006.0 |
| 20260504171749 | 25 | 171 | 6.4 | 11.3 | 0.00 | 0.00 | 0.00 | 45 | 1005.8 |
| 20260504171247 | 25 | 216 | 3.2 | 16.1 | 0.00 | 0.00 | 0.00 | 45 | 1005.9 |
| 20260504170743 | 26 | 181 | 6.4 | 14.5 | 0.00 | 0.00 | 0.00 | 43 | 1005.9 |
| 20260504170241 | 25 | 236 | 0.0 | 17.7 | 0.00 | 0.00 | 0.00 | 46 | 1005.8 |
| 20260504160159 | 23 | 176 | 11.3 | 17.7 | 0.00 | 0.00 | 0.00 | 48 | 1005.8 |
| 20260504151127 | 21 | 160 | 4.8 | 30.6 | 0.00 | 0.00 | 0.00 | 52 | 1005.8 |
| 20260504150624 | 20 | 183 | 6.4 | 24.1 | 0.00 | 0.00 | 0.00 | 53 | 1006.0 |
| 20260504150121 | 20 | 198 | 8.0 | 19.3 | 0.00 | 0.00 | 0.00 | 53 | 1006.1 |
| 20260504141050 | 20 | 170 | 3.2 | 22.5 | 0.00 | 0.00 | 0.00 | 54 | 1006.2 |
| 20260504140546 | 20 | 165 | 8.0 | 14.5 | 0.00 | 0.00 | 0.00 | 54 | 1006.1 |
| 20260504130510 | 16 | 167 | 4.8 | 25.7 | 0.00 | 0.00 | 0.00 | 60 | 1006.2 |